Radiation Dose at Monitoring Post of Fukushima Daini Nuclear Power Station
Date,Time,MP-1(microSv/h),MP-2(microSv/h),MP-3(microSv/h),MP-4(microSv/h),MP-5(microSv/h),MP-6(microSv/h),MP-7(microSv/h),Wind Direction,Wind Velocity(m/s),Rain
2024/06/01,00:00,0.142,0.125,0.199,0.188,0.202,0.111,0.072,north-northwest,3.7,Yes
2024/06/01,00:10,0.141,0.126,0.200,0.187,0.201,0.112,0.072,north-northwest,3.3,Yes
2024/06/01,00:20,0.143,0.125,0.199,0.189,0.204,0.112,0.073,north-northwest,3.1,Yes
2024/06/01,00:30,0.141,0.125,0.201,0.189,0.201,0.112,0.073,north-northwest,3.9,Yes
2024/06/01,00:40,0.142,0.126,0.200,0.189,0.203,0.111,0.072,north-northwest,3.5,Yes
2024/06/01,00:50,0.141,0.125,0.202,0.189,0.201,0.113,0.072,northwest,3.2,Yes
2024/06/01,01:00,0.141,0.125,0.199,0.188,0.201,0.112,0.073,north-northwest,3.1,Yes
2024/06/01,01:10,0.142,0.126,0.201,0.187,0.202,0.112,0.073,north-northwest,3.1,Yes
2024/06/01,01:20,0.142,0.125,0.200,0.188,0.202,0.112,0.073,north-northwest,2.7,Yes
2024/06/01,01:30,0.141,0.125,0.200,0.187,0.200,0.112,0.073,north-northwest,2.9,Yes
2024/06/01,01:40,0.141,0.125,0.198,0.188,0.203,0.112,0.072,north-northwest,3.2,Yes
2024/06/01,01:50,0.141,0.125,0.200,0.188,0.201,0.111,0.073,north-northwest,3.2,Yes
2024/06/01,02:00,0.142,0.125,0.200,0.188,0.201,0.112,0.073,northwest,3.0,Yes
2024/06/01,02:10,0.142,0.126,0.201,0.188,0.201,0.112,0.073,north-northwest,3.9,Yes
2024/06/01,02:20,0.142,0.125,0.200,0.189,0.201,0.112,0.073,north-northwest,4.1,Yes
2024/06/01,02:30,0.141,0.124,0.200,0.187,0.200,0.112,0.073,north-northwest,3.7,Yes
2024/06/01,02:40,0.141,0.125,0.200,0.188,0.202,0.112,0.073,north-northwest,2.9,Yes
2024/06/01,02:50,0.140,0.125,0.200,0.188,0.201,0.111,0.073,north-northwest,2.6,Yes
2024/06/01,03:00,0.141,0.125,0.199,0.189,0.202,0.111,0.072,north-northwest,3.1,Yes
2024/06/01,03:10,0.141,0.125,0.200,0.187,0.200,0.111,0.073,north-northwest,2.8,Yes
2024/06/01,03:20,0.141,0.125,0.200,0.189,0.201,0.111,0.073,northwest,2.8,Yes
2024/06/01,03:30,0.141,0.125,0.201,0.187,0.200,0.111,0.072,west-northwest,2.8,Yes
2024/06/01,03:40,0.141,0.125,0.200,0.188,0.202,0.111,0.072,northwest,2.6,No
2024/06/01,03:50,0.140,0.126,0.200,0.186,0.200,0.110,0.073,northwest,2.5,No
2024/06/01,04:00,0.141,0.126,0.200,0.188,0.201,0.112,0.072,northwest,1.2,No
2024/06/01,04:10,0.141,0.126,0.199,0.186,0.200,0.111,0.072,north,1.8,No
2024/06/01,04:20,0.141,0.125,0.201,0.189,0.201,0.111,0.072,north,2.0,No
2024/06/01,04:30,0.141,0.126,0.199,0.187,0.200,0.110,0.073,north,2.6,No
2024/06/01,04:40,0.141,0.125,0.200,0.189,0.203,0.111,0.073,north,2.2,No
2024/06/01,04:50,0.140,0.125,0.198,0.186,0.200,0.112,0.072,north-northeast,2.5,No
2024/06/01,05:00,0.141,0.125,0.201,0.188,0.201,0.112,0.073,north,2.5,No
2024/06/01,05:10,0.141,0.125,0.199,0.187,0.199,0.111,0.072,north,2.3,No
2024/06/01,05:20,0.141,0.125,0.199,0.188,0.203,0.112,0.073,north,2.6,No
2024/06/01,05:30,0.141,0.124,0.199,0.187,0.199,0.111,0.072,north,3.3,No
2024/06/01,05:40,0.140,0.124,0.199,0.187,0.202,0.110,0.072,north,3.6,No
2024/06/01,05:50,0.140,0.125,0.199,0.187,0.200,0.111,0.071,north,2.6,No
2024/06/01,06:00,0.141,0.124,0.199,0.188,0.201,0.111,0.072,north,2.1,No
2024/06/01,06:10,0.142,0.125,0.199,0.186,0.200,0.112,0.072,north,1.3,No
2024/06/01,06:20,0.141,0.124,0.199,0.187,0.201,0.111,0.072,north,1.7,No
2024/06/01,06:30,0.141,0.125,0.200,0.187,0.202,0.111,0.072,north,1.8,No
2024/06/01,06:40,0.140,0.125,0.199,0.188,0.201,0.111,0.072,north-northwest,1.4,No
2024/06/01,06:50,0.141,0.124,0.200,0.187,0.201,0.111,0.072,north,1.4,No
2024/06/01,07:00,0.140,0.124,0.199,0.188,0.199,0.111,0.071,north-northeast,1.1,No
2024/06/01,07:10,0.140,0.125,0.198,0.186,0.202,0.111,0.071,north-northeast,1.6,No
2024/06/01,07:20,0.141,0.124,0.198,0.186,0.200,0.111,0.072,north-northeast,1.9,No
2024/06/01,07:30,0.139,0.124,0.199,0.187,0.201,0.111,0.072,northeast,2.5,No
2024/06/01,07:40,0.140,0.125,0.197,0.187,0.200,0.112,0.071,northeast,2.6,No
2024/06/01,07:50,0.141,0.123,0.198,0.187,0.198,0.111,0.072,northeast,3.3,No
2024/06/01,08:00,0.139,0.125,0.199,0.188,0.202,0.111,0.072,north-northeast,3.4,No
2024/06/01,08:10,0.139,0.125,0.198,0.186,0.200,0.111,0.071,north-northeast,2.8,No
2024/06/01,08:20,0.141,0.124,0.197,0.187,0.198,0.110,0.072,northeast,2.1,No
2024/06/01,08:30,0.140,0.125,0.198,0.188,0.201,0.110,0.072,northeast,2.6,No
2024/06/01,08:40,0.139,0.125,0.200,0.187,0.199,0.112,0.071,northeast,2.8,No
2024/06/01,08:50,0.141,0.123,0.198,0.187,0.198,0.110,0.071,northeast,4.0,No
2024/06/01,09:00,0.141,0.125,0.198,0.188,0.201,0.110,0.071,northeast,3.7,No
2024/06/01,09:10,0.140,0.125,0.196,0.188,0.201,0.111,0.072,north-northeast,3.3,No
2024/06/01,09:20,0.139,0.123,0.198,0.187,0.201,0.112,0.072,northeast,3.4,No
2024/06/01,09:30,0.143,0.124,0.201,0.186,0.198,0.110,0.071,north-northeast,3.9,No
2024/06/01,09:40,0.140,0.126,0.200,0.185,0.203,0.111,0.072,north-northeast,4.7,No
2024/06/01,09:50,0.139,0.124,0.197,0.188,0.200,0.111,0.072,northeast,4.9,No
2024/06/01,10:00,0.143,0.125,0.199,0.189,0.199,0.111,0.072,north-northeast,4.4,No
2024/06/01,10:10,0.140,0.125,0.201,0.187,0.203,0.110,0.072,northeast,4.2,No
2024/06/01,10:20,0.141,0.124,0.200,0.189,0.203,0.111,0.072,northeast,4.1,No
2024/06/01,10:30,0.142,0.125,0.198,0.190,0.199,0.111,0.071,northeast,3.4,No
2024/06/01,10:40,0.141,0.125,0.199,0.189,0.200,0.111,0.072,northeast,4.1,No
2024/06/01,10:50,0.140,0.124,0.200,0.187,0.203,0.111,0.071,northeast,4.1,No
2024/06/01,11:00,0.142,0.125,0.199,0.190,0.202,0.112,0.072,northeast,4.3,No
2024/06/01,11:10,0.141,0.125,0.198,0.189,0.199,0.111,0.073,northeast,4.2,No
2024/06/01,11:20,0.140,0.124,0.202,0.187,0.200,0.111,0.071,northeast,3.9,No
2024/06/01,11:30,0.140,0.126,0.200,0.188,0.203,0.112,0.072,northeast,3.3,No
2024/06/01,11:40,0.142,0.125,0.199,0.189,0.200,0.111,0.073,northeast,3.9,No
2024/06/01,11:50,0.141,0.126,0.201,0.188,0.204,0.112,0.071,northeast,5.0,No
2024/06/01,12:00,0.142,0.125,0.201,0.189,0.202,0.111,0.072,north-northeast,3.9,No
2024/06/01,12:10,0.141,0.124,0.202,0.190,0.201,0.110,0.073,north-northeast,4.0,No
2024/06/01,12:20,0.141,0.126,0.201,0.188,0.203,0.111,0.072,northeast,4.0,No
2024/06/01,12:30,0.142,0.125,0.199,0.190,0.201,0.112,0.073,northeast,3.6,No
2024/06/01,12:40,0.141,0.125,0.202,0.190,0.202,0.111,0.073,northeast,3.6,No
2024/06/01,12:50,0.141,0.126,0.200,0.188,0.202,0.112,0.072,northeast,3.7,No
2024/06/01,13:00,0.142,0.125,0.200,0.190,0.200,0.111,0.072,northeast,4.4,No
2024/06/01,13:10,0.141,0.125,0.201,0.188,0.203,0.110,0.073,north-northeast,3.6,No
2024/06/01,13:20,0.142,0.125,0.199,0.190,0.201,0.111,0.073,north-northeast,2.6,No
2024/06/01,13:30,0.140,0.125,0.201,0.188,0.201,0.112,0.072,north-northeast,2.8,No
2024/06/01,13:40,0.143,0.125,0.199,0.187,0.201,0.111,0.072,north-northeast,3.6,No
2024/06/01,13:50,0.141,0.125,0.201,0.190,0.200,0.111,0.071,northeast,2.7,No
2024/06/01,14:00,0.140,0.126,0.200,0.188,0.203,0.111,0.072,north-northeast,3.4,No
2024/06/01,14:10,0.141,0.124,0.199,0.188,0.202,0.112,0.072,north-northeast,2.8,No
2024/06/01,14:20,0.140,0.126,0.202,0.189,0.200,0.111,0.071,northeast,2.7,No
2024/06/01,14:30,0.141,0.125,0.200,0.188,0.203,0.111,0.073,north-northeast,2.8,No
2024/06/01,14:40,0.141,0.124,0.201,0.189,0.201,0.112,0.072,northeast,2.6,No
2024/06/01,14:50,0.140,0.125,0.201,0.189,0.202,0.111,0.072,north-northeast,2.9,No
2024/06/01,15:00,0.142,0.125,0.199,0.188,0.202,0.111,0.072,north-northeast,3.1,No
2024/06/01,15:10,0.141,0.124,0.202,0.189,0.201,0.113,0.072,north-northeast,1.9,No
2024/06/01,15:20,0.140,0.124,0.200,0.189,0.203,0.110,0.072,northeast,2.7,No
2024/06/01,15:30,0.142,0.125,0.200,0.188,0.202,0.111,0.073,northeast,2.2,No
2024/06/01,15:40,0.141,0.125,0.201,0.190,0.202,0.112,0.071,north-northeast,2.1,No
2024/06/01,15:50,0.141,0.126,0.200,0.189,0.202,0.111,0.072,northeast,2.8,No
2024/06/01,16:00,0.141,0.126,0.201,0.189,0.201,0.111,0.072,north-northeast,2.7,No
2024/06/01,16:10,0.141,0.125,0.201,0.190,0.204,0.112,0.072,north,2.7,No
2024/06/01,16:20,0.142,0.126,0.200,0.189,0.202,0.112,0.072,north-northeast,3.7,No
2024/06/01,16:30,0.142,0.125,0.201,0.190,0.201,0.112,0.072,north-northeast,4.8,No
2024/06/01,16:40,0.142,0.126,0.199,0.189,0.201,0.111,0.073,north,4.5,No
2024/06/01,16:50,0.142,0.125,0.201,0.189,0.199,0.111,0.072,north,5.8,No
2024/06/01,17:00,0.142,0.125,0.201,0.189,0.203,0.112,0.072,north,5.6,No
2024/06/01,17:10,0.142,0.126,0.200,0.188,0.201,0.111,0.072,north-northeast,5.4,No
2024/06/01,17:20,0.141,0.125,0.200,0.191,0.203,0.111,0.072,north-northeast,4.9,No
2024/06/01,17:30,0.141,0.125,0.202,0.189,0.201,0.113,0.072,north,5.1,No
2024/06/01,17:40,0.141,0.125,0.200,0.191,0.202,0.111,0.072,north-northeast,6.0,No
2024/06/01,17:50,0.141,0.126,0.200,0.189,0.202,0.111,0.073,north-northeast,6.0,No
2024/06/01,18:00,0.141,0.125,0.200,0.190,0.202,0.111,0.072,north-northeast,4.6,No
2024/06/01,18:10,0.142,0.125,0.201,0.190,0.202,0.112,0.073,north-northeast,5.8,No
2024/06/01,18:20,0.142,0.126,0.200,0.190,0.202,0.111,0.072,north-northeast,6.1,No
2024/06/01,18:30,0.142,0.125,0.201,0.189,0.203,0.112,0.073,north-northeast,5.4,No
2024/06/01,18:40,0.142,0.126,0.201,0.189,0.201,0.112,0.072,north,4.2,No
2024/06/01,18:50,0.141,0.125,0.200,0.190,0.203,0.111,0.072,north,4.0,No
2024/06/01,19:00,0.143,0.125,0.201,0.190,0.200,0.111,0.073,north,4.6,No
2024/06/01,19:10,0.141,0.125,0.200,0.190,0.204,0.112,0.072,north,3.9,No
2024/06/01,19:20,0.142,0.125,0.201,0.190,0.201,0.112,0.072,north,3.5,No
2024/06/01,19:30,0.142,0.125,0.202,0.189,0.203,0.111,0.072,north,3.0,No
2024/06/01,19:40,0.142,0.125,0.200,0.189,0.201,0.112,0.072,north,2.5,No
2024/06/01,19:50,0.142,0.126,0.202,0.190,0.203,0.111,0.073,north,4.1,No
2024/06/01,20:00,0.141,0.125,0.201,0.189,0.200,0.112,0.072,north,3.4,No
2024/06/01,20:10,0.142,0.125,0.201,0.189,0.204,0.111,0.072,north-northwest,3.6,No
2024/06/01,20:20,0.142,0.126,0.200,0.188,0.201,0.111,0.072,north-northwest,3.1,No
2024/06/01,20:30,0.141,0.126,0.202,0.190,0.203,0.111,0.072,north,2.4,No
2024/06/01,20:40,0.142,0.125,0.200,0.190,0.201,0.112,0.071,north,2.4,No
2024/06/01,20:50,0.141,0.125,0.201,0.190,0.203,0.111,0.072,north,3.6,No
2024/06/01,21:00,0.142,0.125,0.200,0.189,0.200,0.112,0.072,northwest,2.9,No
2024/06/01,21:10,0.142,0.125,0.201,0.189,0.203,0.112,0.072,northwest,3.4,Yes
2024/06/01,21:20,0.141,0.126,0.200,0.189,0.201,0.112,0.072,north-northwest,3.9,Yes
2024/06/01,21:30,0.142,0.125,0.201,0.190,0.203,0.112,0.072,north-northwest,4.1,Yes
2024/06/01,21:40,0.142,0.126,0.201,0.190,0.201,0.111,0.072,north-northwest,4.0,Yes
2024/06/01,21:50,0.141,0.125,0.200,0.190,0.203,0.112,0.072,northwest,3.5,No
2024/06/01,22:00,0.142,0.125,0.201,0.189,0.200,0.111,0.073,northwest,3.9,No
2024/06/01,22:10,0.141,0.125,0.201,0.189,0.203,0.112,0.073,northwest,3.6,No
2024/06/01,22:20,0.142,0.125,0.201,0.189,0.201,0.112,0.072,north-northwest,4.1,No
2024/06/01,22:30,0.142,0.125,0.201,0.190,0.203,0.112,0.072,northwest,3.9,No
2024/06/01,22:40,0.141,0.127,0.202,0.189,0.201,0.112,0.072,northwest,4.4,No
2024/06/01,22:50,0.141,0.125,0.201,0.189,0.203,0.112,0.072,north-northwest,4.7,No
2024/06/01,23:00,0.142,0.125,0.201,0.190,0.202,0.112,0.072,northwest,3.9,No
2024/06/01,23:10,0.141,0.125,0.201,0.188,0.203,0.112,0.072,northwest,4.2,No
2024/06/01,23:20,0.142,0.126,0.201,0.190,0.202,0.112,0.072,north-northwest,5.8,No
2024/06/01,23:30,0.141,0.126,0.202,0.190,0.203,0.111,0.072,north-northwest,5.1,No
2024/06/01,23:40,0.141,0.125,0.201,0.190,0.201,0.112,0.072,northwest,5.9,No
2024/06/01,23:50,0.142,0.125,0.202,0.190,0.202,0.112,0.072,north-northwest,6.5,No
